This demonstration page uses our WeatherBlox Daily Observations layout. Learn more.

Left ArrowRight Arrow

36.19886, -115.1175

Hourly Observations for December 17, 2017

Temp ( °F °C ) Dew Point ( °F °C ) Humidity (%) Winds ( mph kmh ) Pressure ( in mb ) Visibility ( mi km ) Precip ( " mm )
12:53 am 00:53 Cloudy 51 10.6 22 -5.6 32 32 NNW 24 39 29.97 1015 10 16 0.00 0.00
1:53 am 01:53 Cloudy 51 10.6 21 -6.1 31 31 NNW 25 41 29.99 1016 10 16 0.00 0.00
2:53 am 02:53 Cloudy 50 10 20 -6.7 30 30 N 22 35 30.01 1016 10 16 0.00 0.00
3:53 am 03:53 Mostly Cloudy 49 9.4 19 -7.2 31 31 N 16 26 30.02 1017 10 16 0.00 0.00
4:53 am 04:53 Clear 48 8.9 18 -7.8 30 30 NNW 24 39 30.04 1017 10 16 0.00 0.00
5:53 am 05:53 Clear 47 8.3 17 -8.3 30 30 N 24 39 30.06 1018 10 16 0.00 0.00
6:53 am 06:53 Sunny 46 7.8 17 -8.3 31 31 N 21 33 30.10 1019 10 16 0.00 0.00
7:53 am 07:53 Sunny 47 8.3 16 -8.9 29 29 N 22 35 30.13 1020 10 16 0.00 0.00
8:53 am 08:53 Sunny 48 8.9 16 -8.9 28 28 N 21 33 30.15 1021 10 16 0.00 0.00
9:53 am 09:53 Sunny 49 9.4 15 -9.4 26 26 NNW 23 37 30.16 1021 10 16 0.00 0.00
10:53 am 10:53 Sunny 51 10.6 15 -9.4 24 24 NNW 17 28 30.14 1021 10 16 0.00 0.00
11:53 am 11:53 Sunny 53 11.7 15 -9.4 22 22 NNW 23 37 30.10 1019 10 16 0.00 0.00
12:53 pm 12:53 Sunny 55 12.8 15 -9.4 20 20 N 17 28 30.08 1019 10 16 0.00 0.00
1:53 pm 13:53 Sunny 55 12.8 15 -9.4 20 20 NNW 20 31 30.08 1019 10 16 0.00 0.00
2:53 pm 14:53 Sunny 56 13.3 15 -9.4 20 20 NNW 17 28 30.09 1019 10 16 0.00 0.00
3:53 pm 15:53 Sunny 55 12.8 15 -9.4 20 20 NNW 16 26 30.10 1019 10 16 0.00 0.00
4:53 pm 16:53 Clear 53 11.7 15 -9.4 22 22 N 10 17 30.13 1020 10 16 0.00 0.00
5:53 pm 17:53 Clear 52 11.1 15 -9.4 23 23 NNW 8 13 30.14 1021 10 16 0.00 0.00
6:53 pm 18:53 Clear 48 8.9 15 -9.4 27 27 N 9 15 30.16 1022 10 16 0.00 0.00
7:53 pm 19:53 Clear 49 9.4 14 -10 25 25 N 12 19 30.19 1022 10 16 0.00 0.00
8:53 pm 20:53 Clear 48 8.9 12 -11.1 23 23 N 9 15 30.20 1023 10 16 0.00 0.00
9:53 pm 21:53 Clear 46 7.8 12 -11.1 25 25 N 9 15 30.21 1023 10 16 0.00 0.00
10:53 pm 22:53 Clear 47 8.3 12 -11.1 24 24 N 13 20 30.22 1024 10 16 0.00 0.00
11:53 pm 23:53 Clear 48 8.9 13 -10.6 24 24 NNE 12 19 30.22 1023 10 16 0.00 0.00

Powered by AerisWeather